Regional Weather Roundup
Issued by NWS Cleveland, OH

Home | Current Version | Previous Version | Graphics & Text | Print | Product List | Glossary On
Versions: 1 2 3 4 5 6 7 8 9 10 11 12 13 14 15 16 17 18 19 20 21 22 23 24 25 26 27 28 29 30 31 32 33 34 35 36 37 38 39 40 41 42 43 44 45 46 47 48 49 50
351
ASUS41 KCLE 051612
RWRCLE
OHIO REGIONAL WEATHER ROUNDUP
NATIONAL WEATHER SERVICE WILMINGTON, OH
1100 AM EST MON DEC 05 2016

NOTE: "FAIR" INDICATES FEW OR NO CLOUDS BELOW 12,000 FEET WITH NO
SIGNIFICANT WEATHER AND/OR OBSTRUCTIONS TO VISIBILITY.

OHZ001>008-015>018-024>027-034-035-043-044-051700-
   NORTHWEST OHIO

CITY           SKY/WX    TMP DP  RH WIND       PRES   REMARKS
DEFIANCE       CLOUDY    36  29  75 S10       30.11R
FINDLAY        CLOUDY    36  30  79 SW9       30.10R
TOLEDO EXPRESS CLOUDY    36  33  89 S10       30.08R
TOLEDO EXEC    CLOUDY    37  33  85 SW14      30.10R
LIMA           NOT AVBL
$$

OHZ009>014-019>023-028>033-038-089-051700-
   NORTHEAST OHIO

CITY           SKY/WX    TMP DP  RH WIND       PRES   REMARKS
CLE-HOPKINS    CLOUDY    40  31  70 W10       30.11R
CLE-LAKEFRONT  CLOUDY    39  32  76 SW15      30.08R
CUY CO. ARPT   CLOUDY    39  36  87 W12       30.07R
LORAIN-ELYRIA  CLOUDY    36  30  79 W10       30.10R
ASHTABULA      CLOUDY    40  33  76 W8        30.05S
AKRON-CANTON   CLOUDY    37  30  75 W8        30.09R
WOOSTER        CLOUDY    36  30  79 W8        30.10R
MANSFIELD      CLOUDY    35  29  78 W6        30.09R
YOUNGSTOWN     CLOUDY    38  31  76 W9        30.06R
$$

OHZ042-051>053-060>062-070>072-077>081-051700-
  SOUTHWEST OHIO

CITY           SKY/WX    TMP DP  RH WIND       PRES   REMARKS
CINC-COVINGTON CLOUDY    38  31  76 CALM      30.12R
CINC-LUNKEN    NOT AVBL
HAMILTON       NOT AVBL
DAYTON         CLOUDY    36  30  79 SW5       30.12R
WRIGHT-PAT AFB CLOUDY    38  32  78 S2        30.12R
DAYTON GENERAL NOT AVBL
WILMINGTON     CLOUDY    37  31  78 CALM      30.12R
$$

OHZ036-037-039>041-045>050-054>059-063>069-073>076-082>088-051700-
  CENTRAL AND SOUTHEAST OHIO

CITY           SKY/WX    TMP DP  RH WIND       PRES   REMARKS
COLUMBUS       CLOUDY    37  31  78 VRB7      30.12S
OSU AIRPORT    NOT AVBL
BOLTON FIELD   CLOUDY    37  30  75 SW3       30.11S
RICKENBACK AFB CLOUDY    37  29  73 CALM      30.12F
NEWARK         CLOUDY    38  30  73 W3        30.11S
MARION         NOT AVBL
LANCASTER      NOT AVBL
ZANESVILLE     CLOUDY    38  29  70 W3        30.12R
NEW PHILLY     CLOUDY    38  31  76 W3        30.12R
$$




USA.gov is the U.S. government's official web portal to all federal, state and local government web resources and services.